Погода в Елани

Погода в Елани : погода сейчас, прогноз погоды и архив. Всё, что Вы хотите узнать о погоде в Елани!

Хотите узнать прогноз погоды в Елани? Тогда Вам сюда: Погода в Елани

Поиск расширенной информации на нашем сайте:

Другие новости

Новости СМИ2

Главная страница сайта

Новости сайта

02.10.2013

Напоминаем, что на нашем новом сайте вы можете получить высокодетализированные прогнозы погоды по пунктам России, СНГ и мира (включающие важные для авиации метеовеличины, такие как направление и скорость ветра, видимость, явления погоды, количество и форма облачности, нижняя и верхняя граница облачности), а также ознакомиться с разнообразными материалами по авиационной метеорологии и подборкой полезных ссылок на эту тему.

Сайт Метеоцентр.Азия посвящён разработке технологий оптимизации авиаметеорологического обслуживания, включая проектирование и перспективное создание нескольких автоматизированных авиаметеорологических систем:
- система выпуска высокодетальных прогностических карт явлений погоды для нижнего воздушного пространства по России и ближнему зарубежью;
- система верификации прогнозов TAF (выпускаемых синоптиками официальных АМСГ РФ и ближнего зарубежья) и AUTOTAF (выпускаемых сайтом Метеоцентр.Азия) - выявление ошибок, онлайн-сопоставление с фактической погодой METAR, автоматическое внесение коррективов в прогнозы при резком отклонении фактической погоды от прогноза, подсчёт оправдываемости прогнозов по элементам и в целом;
- система обработки, анализа и отображения авиаметеорологической информации для применения провайдерами метеорологической информации.

Рекомендуем: пластиковый контейнер с крышкой прозрачный для хранения

Погода в Елани - сегодня

Время (UTC), дата Ветер
(°,м/с) 
Видим.   Явления Облачность Т
(°С)
Тd
(°С)
f(%) Тe
(°С)
Pmin
(гПа)
dP
(гПа)
Po
(мм)
O2
(г/м3)
Тmin Tmax R s Состояние
почвы
15 21.01.17 250 (З) 6{10}  20000 м  слаб. снег  10/10 100 м 
[Frnb|Ns]
-3.2 -4 94 -7  1008.1  -1.8  743  304    -3.1     
18 21.01.17 320 (СЗ) 8-13{13}  20000 м  позёмок{снег}  10/10 100 м 
[Ns]
-2.8 -4.3 89 -8  1008.3  0.2  744  303           
21 21.01.17 320 (СЗ) 4{15}  20000 м    ясно 
-8.5 -12.1 75 -12  1012.7  3.9  747  312           
00 22.01.17 290 (З) 20000 м    ясно 
-9.4 -11.4 85 -14  1015.5  2.7  749  313           
03 22.01.17 280 (З) 7{11}  20000 м    ясно 
-11 -12.9 86 -17  1017.7  750  316  -11.2    0.5  20  равномерный
сухой снег
100% 
06 22.01.17 280 (З) 7{11}  20000 м    ясно 
-10.7 -13 83 -17  1019.8  752  316           
09 22.01.17 270 (З) 10-13{13}  20000 м    ясно 
-8.9 -11.9 79 -16  1020.3  0.6  752  314           
12 22.01.17 260 (З) 9-11{14}  20000 м  позёмок  ясно 
-7.7 -11.6 74 -14  1019.8  -0.4  752  313           
15 22.01.17 260 (З) 8-11{14}  20000 м    5/3 1000 м средняя 
[Sc|Ac As]
-9.2 -12.1 79 -15  1019.6  -0.3  752  315    -7.7       
18 22.01.17 250 (З) 7-10{12}  20000 м    8/0 средняя 
[Ac cast]
-8.8 -10.9 85 -14  1018.2  -1.4  751  314           
21 22.01.17 250 (З) 7-10{13}  10 км  слаб. снег  10/10 100 м 
[Frnb|Ns]
-6 -7.7 88 -11  1016.8  -1.2  750  310           
00 23.01.17 270 (З) 7-10{12}  10 км  слаб. снег  10/10 100 м 
[Frnb|Ns]
-4.4 -5.6 91 -9  1016.4  -0.3  750  308           
03 23.01.17 280 (З) 4{12}  10 км  слаб. ливневой снег  10/10 300 м кучево-дожд. 
[Cb cap]
-2.6 -3.7 92 -5  1017.9  1.6  751  306  -9.7    0.5  21  равномерный
мокрый или
старый снег
100% 
06 23.01.17 250 (З) 20000 м  {ливн. осадки, снег}  8/8 300 м кучево-дожд. 
[Cb cap]
-3.6 -4.6 93 -3  1019.8  1.7  752  308           
09 23.01.17 250 (З) 10 км  слаб. ливневой снег  10/10 300 м кучево-дожд. 
[Cb cap]
-0.9 -1.6 95 -3  1019.7  0.1  752  304           
12 23.01.17 250 (З) 5{10}  20000 м  {ливн. осадки}  10/10 300 м кучево-дожд. 
[Cb cap]
+0.2 -1.6 88 -3  1019.1  -0.5  752  303           
15 23.01.17 250 (З) 6{10}  10 км  слаб. ливневой снег  10/10 300 м кучево-дожд. 
[Cb cap]
-1 -2.4 90 -5  1019.2  752  304    +0.4  0.3     
18 23.01.17 230 (ЮЗ) 20000 м  {ливн. осадки}  10/10 300 м 
[Sc]
-1.6 -2.6 93 -5  1018  -1.3  751  305           
21 23.01.17 230 (ЮЗ) 20000 м    10/10 300 м 
[Sc]
-1.8 -2.6 94 -6  1016.9  -1.1  750  305           
00 24.01.17 240 (ЮЗ) 7-10{10}  4000 м  в посл. час переохл. осадки (гололёд){морось} [диам. гололёда 1 мм]  10/10 300 м 
[Sc]
-2.5 -3.5 93 -7  1015.2  -1.7  749  305           
03 24.01.17 230 (ЮЗ) 3{11}  20000 м  [диам. гололёда 1 мм]  10/10 300 м 
[Sc]
-5.4 -7.1 88 -8  1014.2  -1.1  748  308  -5.4    0.0  21  равномерный
мокрый или
старый снег
100% 
06 24.01.17 240 (ЮЗ) 20000 м    10/10 300 м 
[Sc]
-6.1 -8.5 83 -10  1014.1  -0.2  748  309  -6.8         
09 24.01.17 260 (З) 7-11{12}  20000 м    10/0 средняя 
[Ac As]
-4.8 -7.3 83 -10  1013.7  -0.2  748  307           
12 24.01.17 240 (ЮЗ) 8-11{12}  20000 м    10/0 средняя 
[Ac As]
-4.9 -6.8 87 -10  1013.1  -0.6  747  307           
15 24.01.17 240 (ЮЗ) 7-10{11}  20000 м    10/0 средняя 
[Ac As]
-4.7 -6.2 89 -10  1012.9  -0.2  747  307    -4.6       
Время (UTC), дата Ветер
(°,м/с) 
Видим.   Явления Облачность Т
(°С)
Тd
(°С)
f(%) Тe
(°С)
Pmin
(гПа)
dP
(гПа)
Po
(мм)
O2
(г/м3)
Тmin Tmax R s Состояние
почвы

Для получения пояснительной информации подведите курсор к названию столбца.

ПОГОДА в Елани - архив

Всё, что Вы хотите узнать о погоде в Елани - удобно и подробно!

Выберите нужную дату (начиная с 1 января 2015* года) и нажмите кнопку "Найти".
Будут отображены архивные сводки погоды по пункту Елань, начиная с указанной даты.


Отображать данные в формате CSV (для использования в таблицах Excel)


Внимание! Наш архив погоды предназначен исключительно для личного некоммерческого использования в познавательных целях. Если Вам необходимы официальные справки о состоянии погоды (для производственных, юридических, коммерческих и т.п. целей), обращайтесь в органы Росгидромета.

*Примечание: данная дата относится к архиву по метеостанциям СССР (Россия, СНГ, Балтия).
Архив по метеостанциям Зарубежной Европы и Азии (кроме Китая) хранится 10 дней, по другим регионам земного шара (Китай, Африка, Америка, Австралия, Океания) - 1 день.

Елань - район местоположения метеостанции


Название, широта, долгота, высота метеостанции:
Елань 50.9°ш. 43.7°д. 132 м над ур. моря [Российская Федерация]

Дополнительная информация

В oтличие oт бoльшинства пoгoдных сайтoв мы публикуем пoдрoбную метеoинфoрмацию в детальнoм прoфессиoнальнoм фoрмате.

Характеристики температуры и влажнoсти вoздуха измеряются на высoте 2 м в тени вдали oт зданий и деревьев.
Скoрoсть ветра измеряется на высoте 10 м (на урoвне рoста челoвека скoрoсть ветра ниже в 1.5-2 раза). Если метеoстанция нахoдится в гoрoде или в лесу, тo скoрoсть ветра занижена на 2-4 м/с пo сравнению с oткрытым местoм. Скoрoсть ветра над акватoриями крупных рек и oзёр, а также на вершинах хoлмoв на 2-5 м/с выше, чем в oбычных услoвиях.
Атмoсфернoе давление в разных тoчках местнoсти мoжет значительнo oтличаться oт давления на метеoстанции, в зависимoсти oт услoвий рельефа (при пoдъёме на 10 м давление пoнижается примернo на 1 мм рт.ст.).